Weather History for Lapeer, MI

Change the Weather History Date:

Saturday, December 29, 2012

  Actual Average (KFNT) Record (KFNT)
Temperature  
Mean Temperature 25 °F 24 °F  
Max Temperature 28 °F 31 °F 63 °F (1984)
Min Temperature 21 °F 17 °F -7 °F (1944)
Degree Days  
Heating Degree Days 40 41  
Month to date heating degree days 1081  
Since 1 July heating degree days 2562  
Cooling Degree Days 0 0  
Month to date cooling degree days 0  
Year to date cooling degree days 531  
Moisture  
Dew Point 22 °F    
Average Humidity 88    
Maximum Humidity 97    
Minimum Humidity 74    
Precipitation  
Precipitation 0.00 in 0.06 in 1.37 in (1940)
Month to date precipitation 1.81  
Year to date precipitation 31.26  
Snow  
Snow 0.00 in 0.40 in 3.20 in (1980)
Month to date snowfall 10.9  
Since 1 July snowfall 13.8  
Snow Depth -    
Sea Level Pressure  
Sea Level Pressure 29.88 in    
Wind  
Wind Speed 3 mph (NW)    
Max Wind Speed 12 mph    
Max Gust Speed 16 mph    
Visibility 7 miles    
Events Snow    
T = Trace of Precipitation, MM = Missing Value Source: NWS Daily Summary

Daily Weather History Graph

Daily Weather History Graph

Search for Another Location

Airport:

Trip Planner

Search our weather history database for the weather conditions in past years. The results will help you decide how hot, cold, wet, or windy it might be!

Date:

Astronomy

Dec. 29, 2012 Rise Set
Actual Time 8:04 AM EST 5:06 PM EST
Civil Twilight 7:31 AM EST 5:39 PM EST
Nautical Twilight 6:56 AM EST 6:14 PM EST
Astronomical Twilight 6:21 AM EST 6:49 PM EST
Moon 6:41 PM EST (12/29) 8:34 AM EST (12/29)
Length of Visible Light 10h 07m
Length of Day
9h 02m
Full, 98% of the Moon is Illuminated
Dec 29
Full
Jan 4
Last Quarter
Jan 11
New
Jan 18
First Quarter
Jan 26
Full

Hourly Weather History & Observations

Time (EST) Temp. Windchill Dew Point Humidity Pressure Visibility Wind Dir Wind Speed Gust Speed Precip Events Conditions
12:13 AM 22.5 °F - 21.7 °F 97% 29.95 in 3.0 mi Calm Calm - N/A   Overcast
12:33 AM 22.6 °F 18.0 °F 21.9 °F 97% 29.94 in 4.0 mi ENE 3.5 mph - N/A   Overcast
12:53 AM 22.8 °F 18.2 °F 21.9 °F 96% 29.92 in 5.0 mi ENE 3.5 mph - N/A   Overcast
1:13 AM 23.0 °F - 21.9 °F 96% 29.91 in 7.0 mi Calm Calm - N/A   Overcast
1:33 AM 23.0 °F - 21.9 °F 96% 29.90 in 7.0 mi Calm Calm - N/A   Overcast
1:53 AM 23.5 °F - 22.1 °F 94% 29.89 in 7.0 mi Calm Calm - N/A   Overcast
2:13 AM 23.7 °F - 22.1 °F 94% 29.90 in 10.0 mi Calm Calm - N/A   Overcast
2:33 AM 23.7 °F - 21.9 °F 93% 29.90 in 7.0 mi Calm Calm - N/A   Overcast
2:52 AM 23.9 °F - 21.9 °F 92% 29.90 in 7.0 mi Calm Calm - N/A   Overcast
3:13 AM 23.9 °F - 21.4 °F 90% 29.88 in 10.0 mi Calm Calm - N/A   Overcast
3:33 AM 23.9 °F - 21.2 °F 89% 29.88 in 10.0 mi Calm Calm - N/A   Overcast
3:52 AM 24.1 °F - 21.0 °F 88% 29.88 in 7.0 mi Calm Calm - N/A Snow Light Snow
4:13 AM 23.9 °F 19.5 °F 21.2 °F 89% 29.87 in 2.5 mi NE 3.5 mph - N/A Snow Light Snow
4:33 AM 23.7 °F - 21.7 °F 92% 29.86 in 2.0 mi Calm Calm - N/A Snow Light Snow
4:52 AM 23.7 °F - 21.7 °F 92% 29.86 in 2.5 mi Calm Calm - N/A Snow Light Snow
5:13 AM 23.5 °F - 21.7 °F 93% 29.85 in 4.0 mi Calm Calm - N/A Snow Light Snow
5:33 AM 23.5 °F - 21.7 °F 93% 29.85 in 3.0 mi Calm Calm - N/A Snow Light Snow
5:52 AM 23.4 °F - 21.7 °F 94% 29.85 in 2.5 mi Calm Calm - N/A Snow Light Snow
6:13 AM 23.5 °F - 21.9 °F 94% 29.85 in 2.5 mi Calm Calm - N/A Snow Light Snow
6:33 AM 23.4 °F - 21.9 °F 94% 29.85 in 1.8 mi Calm Calm - N/A Snow Light Snow
6:52 AM 23.2 °F - 21.9 °F 95% 29.85 in 3.0 mi Calm Calm - N/A Snow Light Snow
7:13 AM 23.2 °F - 21.9 °F 95% 29.84 in 4.0 mi Calm Calm - N/A Snow Light Snow
7:33 AM 23.4 °F - 21.9 °F 94% 29.84 in 3.0 mi Calm Calm - N/A Snow Light Snow
7:52 AM 23.4 °F - 21.9 °F 94% 29.83 in 2.5 mi Calm Calm - N/A Snow Light Snow
8:13 AM 23.0 °F - 21.7 °F 95% 29.83 in 2.0 mi Calm Calm - N/A Snow Light Snow
8:33 AM 23.4 °F - 21.9 °F 94% 29.82 in 2.0 mi Calm Calm - N/A Snow Light Snow
8:52 AM 23.7 °F - 22.1 °F 94% 29.82 in 4.0 mi Calm Calm - N/A Snow Light Snow
9:13 AM 23.9 °F 19.5 °F 22.1 °F 93% 29.82 in 10.0 mi North 3.5 mph - N/A   Overcast
9:33 AM 24.6 °F 20.3 °F 22.1 °F 90% 29.82 in 7.0 mi North 3.5 mph - N/A   Overcast
9:52 AM 24.8 °F 17.9 °F 22.5 °F 91% 29.82 in 7.0 mi North 5.8 mph - N/A   Overcast
10:13 AM 25.2 °F 19.5 °F 22.1 °F 88% 29.82 in 10.0 mi North 4.6 mph - N/A   Scattered Clouds
10:33 AM 25.3 °F 18.5 °F 21.7 °F 86% 29.83 in 10.0 mi NNW 5.8 mph - N/A   Clear
10:52 AM 25.7 °F 19.0 °F 22.1 °F 86% 29.83 in 10.0 mi NW 5.8 mph - N/A   Clear
11:13 AM 26.4 °F 19.8 °F 22.1 °F 84% 29.83 in 10.0 mi NNW 5.8 mph - N/A   Clear
11:33 AM 26.4 °F 18.9 °F 21.7 °F 82% 29.83 in 10.0 mi NNW 6.9 mph - N/A   Scattered Clouds
11:52 AM 27.0 °F 20.5 °F 22.1 °F 82% 29.83 in 10.0 mi NNW 5.8 mph - N/A   Mostly Cloudy
12:13 PM 27.7 °F 17.6 °F 23.0 °F 83% 29.82 in 10.0 mi NNW 11.5 mph - N/A   Overcast
12:33 PM 27.1 °F 18.9 °F 23.4 °F 86% 29.82 in 10.0 mi NNW 8.1 mph - N/A   Overcast
12:52 PM 27.5 °F 20.2 °F 23.7 °F 86% 29.80 in 10.0 mi NNW 6.9 mph - N/A   Overcast
1:13 PM 28.0 °F 20.8 °F 24.3 °F 86% 29.80 in 10.0 mi NW 6.9 mph - N/A   Overcast
1:33 PM 28.4 °F 23.3 °F 24.4 °F 85% 29.80 in 10.0 mi NW 4.6 mph - N/A   Overcast
1:53 PM 28.6 °F 21.5 °F 25.0 °F 86% 29.80 in 10.0 mi NW 6.9 mph - N/A Snow Light Snow
2:13 PM 28.4 °F 21.2 °F 25.2 °F 88% 29.81 in 5.0 mi NW 6.9 mph - N/A Snow Light Snow
2:33 PM 28.4 °F 21.2 °F 25.2 °F 88% 29.82 in 5.0 mi WNW 6.9 mph - N/A Snow Light Snow
2:53 PM 28.2 °F 20.2 °F 25.2 °F 88% 29.82 in 7.0 mi WNW 8.1 mph - N/A   Overcast
3:13 PM 28.4 °F 20.4 °F 25.2 °F 88% 29.83 in 7.0 mi NW 8.1 mph - N/A   Overcast
3:33 PM 28.2 °F 21.0 °F 25.2 °F 88% 29.84 in 3.0 mi NW 6.9 mph - N/A Snow Light Snow
3:53 PM 27.9 °F 20.6 °F 25.2 °F 90% 29.85 in 3.0 mi NW 6.9 mph - N/A Snow Light Snow
4:13 PM 27.7 °F 20.4 °F 24.8 °F 89% 29.86 in 4.0 mi NW 6.9 mph - N/A   Overcast
4:33 PM 27.5 °F 18.6 °F 24.6 °F 89% 29.86 in 7.0 mi WNW 9.2 mph - N/A   Overcast
4:53 PM 27.3 °F 18.4 °F 23.7 °F 86% 29.87 in 10.0 mi NW 9.2 mph - N/A   Overcast
5:13 PM 27.1 °F 18.2 °F 23.4 °F 86% 29.88 in 10.0 mi NW 9.2 mph - N/A   Overcast
5:32 PM 27.0 °F 20.5 °F 23.0 °F 85% 29.89 in 10.0 mi NW 5.8 mph - N/A   Overcast
6:13 PM 26.4 °F 19.8 °F 22.3 °F 84% 29.91 in 10.0 mi NW 5.8 mph - N/A   Overcast
6:33 PM 26.2 °F 19.6 °F 21.9 °F 84% 29.91 in 10.0 mi NW 5.8 mph - N/A   Overcast
6:53 PM 26.1 °F 21.9 °F 21.6 °F 83% 29.92 in 10.0 mi NW 3.5 mph - N/A   Overcast
7:13 PM 25.7 °F 19.0 °F 21.0 °F 82% 29.93 in 10.0 mi WNW 5.8 mph - N/A   Overcast
7:33 PM 25.3 °F 19.7 °F 20.1 °F 81% 29.93 in 10.0 mi WNW 4.6 mph - N/A   Mostly Cloudy
7:53 PM 25.2 °F 19.5 °F 19.9 °F 81% 29.94 in 10.0 mi NW 4.6 mph - N/A   Mostly Cloudy
8:13 PM 25.7 °F 15.7 °F 20.1 °F 79% 29.95 in 10.0 mi WNW 10.4 mph 16.1 mph N/A   Overcast
8:33 PM 25.7 °F 18.0 °F 18.5 °F 74% 29.95 in 10.0 mi NNW 6.9 mph - N/A   Overcast
8:53 PM 25.3 °F 17.6 °F 18.3 °F 75% 29.95 in 10.0 mi NW 6.9 mph - N/A   Overcast
9:33 PM 23.0 °F 18.4 °F 17.4 °F 79% 29.96 in 10.0 mi WNW 3.5 mph - N/A   Clear
9:53 PM 22.5 °F - 17.2 °F 80% 29.97 in 10.0 mi Calm Calm - N/A   Clear
10:12 PM 22.1 °F 17.4 °F 17.6 °F 83% 29.98 in 10.0 mi West 3.5 mph - N/A   Mostly Cloudy
10:33 PM 23.0 °F 17.0 °F 17.6 °F 80% 29.98 in 10.0 mi WNW 4.6 mph - N/A   Overcast
10:53 PM 22.8 °F 16.7 °F 17.2 °F 79% 29.99 in 10.0 mi WNW 4.6 mph - N/A   Mostly Cloudy
11:12 PM 22.6 °F 15.3 °F 17.2 °F 80% 30.00 in 10.0 mi WNW 5.8 mph - N/A   Clear
11:33 PM 22.1 °F 14.7 °F 17.2 °F 82% 30.00 in 10.0 mi WNW 5.8 mph - N/A   Clear
11:53 PM 21.6 °F 15.3 °F 16.9 °F 82% 30.01 in 10.0 mi WNW 4.6 mph - N/A   Clear